{"data":{"norad_id":65692,"intl_designator":"2025-212S","name":"STARLINK-34825","alt_names":[],"object_type":"PAYLOAD","status":"ACTIVE","operator":null,"country":"US","launch_date":"2025-09-21","launch_site_code":"AFETR","launch_vehicle":null,"mission":null,"orbit_class":"UNKNOWN","rcs_meters":null,"size_class":null,"mass_kg":null,"dimensions":null,"purposes":["comms"],"wikipedia_slug":null,"has_3d_model":false,"image_url":null,"decayed_at":null,"tle_current":{"epoch":"2026-05-24T23:24:41.225760Z","epoch_age_seconds":80328,"freshness":"FRESH","line1":"1 65692U 25212S   26144.97547715  .00011286  00000+0  39249-3 0  9999","line2":"2 65692  53.1604 351.3045 0000995  75.4679 284.6432 15.30206870 38913","mean_motion":15.3020687,"eccentricity":9.95e-5,"inclination_deg":53.1604,"raan_deg":351.3045,"arg_perigee_deg":75.4679,"mean_anomaly_deg":284.6432,"bstar":0.00039249,"rev_number":3891,"period_min":94.104923212114,"perigee_km":474.51265042448,"apogee_km":475.87646340431,"semimajor_km":6853.3315569144,"source":"CELESTRAK","updated_at":"2026-05-25T13:38:20.897072Z"}}}